Location: Berlin
(42.3812°N, 71.6370°W)
Time: 23:56:09
(UTC+00:00)

ADEOS Rocket - Pass Details

Date: 15 November 2025
Orbit: 859 x 1304 km, 98.7° (Epoch: 09 December)

Event Time Altitude Azimuth Distance (km) Brightness Sun altitude
Rises 09:10:13 0° 5° (N) 3,913 6.2 -27.2°
Reaches altitude 10° 09:12:54 10° 357° (N) 3,016 5.5 -26.7°
Enters shadow 09:16:31 28° 332° (NNW) 2,057 4.4 -26.0°
